PAA228 SKCL-MGGT

Flight info

Callsign PAA228
Flight time N/A
Altitude 38000
Route SIGIR6C SIGIR DCT ASIKO UW90 BUSMO DCT ISEBA UL423 IMOLA DCT CAT UG436 KAPAN KAPAN2C
Aircraft L101/H-SDFGHIRWXY/S

Departure

Time 2026-04-26 16:39
Airport Alfonso Bonilla Aragon International Airport (SKCL)

Arrival

Time N/A
Airport La Aurora International Airport (MGGT)
Time Latitude Longitude Altitude Speed Heading
2026-04-26 16:06 3.53513 -76.38632 3169 ft 0 kts 279°
2026-04-26 16:27 3.53512 -76.38628 3167 ft 3 kts 279°
2026-04-26 16:28 3.53508 -76.38601 3171 ft 4 kts 279°
2026-04-26 16:28 3.53503 -76.38575 3169 ft 4 kts 278°
2026-04-26 16:28 3.53506 -76.38553 3167 ft 4 kts 220°
2026-04-26 16:28 3.53529 -76.38542 3167 ft 3 kts 188°
2026-04-26 16:29 3.53538 -76.38541 3171 ft 0 kts 187°
2026-04-26 16:33 3.53517 -76.38544 3168 ft 5 kts 188°
2026-04-26 16:33 3.53470 -76.38551 3169 ft 9 kts 190°
2026-04-26 16:33 3.53408 -76.38561 3168 ft 9 kts 178°
2026-04-26 16:33 3.53361 -76.38524 3167 ft 9 kts 139°
2026-04-26 16:34 3.53292 -76.38510 3167 ft 12 kts 185°
2026-04-26 16:34 3.53212 -76.38524 3167 ft 12 kts 190°
2026-04-26 16:34 3.53125 -76.38540 3168 ft 10 kts 190°
2026-04-26 16:34 3.53050 -76.38553 3167 ft 12 kts 189°
2026-04-26 16:35 3.52982 -76.38552 3171 ft 9 kts 154°
2026-04-26 16:35 3.52953 -76.38503 3167 ft 7 kts 93°
2026-04-26 16:35 3.52968 -76.38463 3168 ft 6 kts 63°
2026-04-26 16:35 3.52991 -76.38419 3166 ft 8 kts 62°
2026-04-26 16:36 3.53032 -76.38390 3165 ft 5 kts 15°
2026-04-26 16:36 3.53040 -76.38388 3165 ft 0 kts 11°
2026-04-26 16:37 3.53045 -76.38387 3165 ft 0 kts 11°
2026-04-26 16:37 3.53047 -76.38387 3165 ft 4 kts 11°
2026-04-26 16:37 3.53069 -76.38383 3166 ft 0 kts 11°
2026-04-26 16:38 3.53181 -76.38362 3165 ft 52 kts
2026-04-26 16:38 3.53837 -76.38250 3172 ft 137 kts
2026-04-26 16:38 3.54984 -76.38042 3415 ft 187 kts 10°
2026-04-26 16:39 3.56287 -76.37799 4469 ft 196 kts 10°
2026-04-26 16:39 3.57666 -76.37550 5340 ft 211 kts
2026-04-26 16:39 3.59232 -76.37285 5586 ft 247 kts
2026-04-26 16:39 3.61023 -76.37007 5939 ft 261 kts
2026-04-26 16:40 3.62799 -76.36754 6771 ft 261 kts
2026-04-26 16:40 3.64662 -76.36527 7066 ft 278 kts
2026-04-26 16:40 3.66576 -76.36737 7624 ft 278 kts 343°
2026-04-26 16:40 3.68260 -76.37742 7955 ft 289 kts 317°
2026-04-26 16:41 3.69446 -76.39374 8412 ft 290 kts 297°
2026-04-26 16:41 3.70275 -76.41144 9344 ft 270 kts 295°
2026-04-26 16:41 3.71004 -76.42882 9635 ft 279 kts 290°
2026-04-26 16:41 3.71608 -76.44753 9611 ft 292 kts 286°
2026-04-26 16:42 3.72066 -76.46713 10081 ft 285 kts 281°
2026-04-26 16:42 3.72423 -76.48660 10369 ft 286 kts 280°
2026-04-26 16:42 3.72785 -76.50665 10308 ft 300 kts 280°
2026-04-26 16:42 3.73178 -76.52754 10250 ft 310 kts 281°
2026-04-26 16:43 3.73581 -76.54902 10190 ft 321 kts 280°
2026-04-26 16:43 3.74165 -76.57133 10232 ft 336 kts 294°
2026-04-26 16:43 3.75413 -76.58965 10565 ft 303 kts 317°
2026-04-26 16:43 3.77039 -76.60162 10733 ft 281 kts 325°
2026-04-26 16:44 3.78601 -76.61327 10456 ft 285 kts 320°
2026-04-26 16:44 3.80152 -76.62687 10012 ft 301 kts 318°
2026-04-26 16:44 3.81817 -76.64083 10022 ft 322 kts 322°
2026-04-26 16:44 3.83686 -76.65418 10175 ft 339 kts 327°
2026-04-26 16:45 3.85739 -76.66695 10280 ft 356 kts 329°
2026-04-26 16:45 3.87924 -76.67966 10389 ft 370 kts 330°
2026-04-26 16:45 3.90198 -76.69275 10502 ft 382 kts 330°
2026-04-26 16:45 3.92510 -76.70618 10885 ft 384 kts 329°
2026-04-26 16:46 3.94821 -76.71969 11261 ft 387 kts 329°
2026-04-26 16:46 3.97122 -76.73309 11692 ft 388 kts 329°
2026-04-26 16:46 3.99495 -76.74683 12108 ft 390 kts 329°
2026-04-26 16:46 4.01829 -76.76027 12517 ft 392 kts 330°
2026-04-26 16:47 4.04339 -76.77215 12906 ft 396 kts 340°
2026-04-26 16:47 4.06987 -76.77849 13300 ft 399 kts 352°
2026-04-26 16:47 4.09763 -76.77962 13752 ft 402 kts
2026-04-26 16:47 4.12569 -76.77760 14076 ft 406 kts
2026-04-26 16:48 4.15389 -76.77401 14377 ft 411 kts
2026-04-26 16:48 4.18223 -76.76965 14627 ft 410 kts
2026-04-26 16:48 4.20927 -76.76513 14761 ft 378 kts
2026-04-26 16:48 4.23460 -76.76069 14836 ft 365 kts
2026-04-26 16:49 4.25960 -76.75625 14868 ft 364 kts
2026-04-26 16:49 4.28436 -76.75068 14851 ft 366 kts 18°
2026-04-26 16:49 4.30711 -76.73962 14836 ft 365 kts 33°
2026-04-26 16:49 4.32619 -76.72314 14850 ft 362 kts 49°
2026-04-26 16:50 4.34024 -76.70234 14862 ft 361 kts 64°
2026-04-26 16:50 4.34831 -76.67861 14864 ft 361 kts 79°
2026-04-26 16:50 4.34987 -76.65357 14866 ft 362 kts 95°
2026-04-26 16:50 4.34489 -76.62897 14893 ft 361 kts 109°
2026-04-26 16:51 4.33485 -76.60589 14895 ft 362 kts 120°
2026-04-26 16:51 4.32086 -76.58498 14910 ft 362 kts 127°
2026-04-26 16:51 4.30560 -76.56483 14901 ft 362 kts 128°
2026-04-26 16:51 4.29051 -76.54461 14905 ft 362 kts 126°
2026-04-26 16:52 4.27598 -76.52402 14900 ft 362 kts 124°
2026-04-26 16:52 4.26669 -76.51018 14899 ft 362 kts 123°
2026-04-26 16:52 4.24851 -76.48181 14916 ft 362 kts 122°
2026-04-26 16:52 4.23535 -76.46039 14916 ft 360 kts 122°
2026-04-26 16:53 4.22239 -76.43891 14963 ft 361 kts 121°
2026-04-26 16:53 4.20967 -76.41762 14994 ft 361 kts 121°
2026-04-26 16:53 4.19681 -76.39603 14996 ft 361 kts 121°
2026-04-26 16:53 4.18393 -76.37440 14998 ft 361 kts 121°
2026-04-26 16:54 4.17110 -76.35282 15010 ft 361 kts 121°
2026-04-26 16:54 4.15827 -76.33119 15009 ft 361 kts 121°
2026-04-26 16:54 4.14546 -76.30956 15022 ft 361 kts 121°
2026-04-26 16:54 4.13093 -76.28913 14993 ft 360 kts 134°
2026-04-26 16:55 4.11195 -76.27298 15021 ft 358 kts 146°
2026-04-26 16:55 4.09061 -76.26007 15041 ft 359 kts 152°
2026-04-26 16:55 4.06834 -76.24871 15031 ft 359 kts 155°
2026-04-26 16:55 4.04537 -76.23893 15018 ft 358 kts 163°
2026-04-26 16:56 3.99710 -76.24129 14999 ft 352 kts 203°
2026-04-26 16:56 3.97472 -76.25136 15074 ft 355 kts 204°
2026-04-26 16:56 3.95172 -76.26058 15061 ft 357 kts 199°
2026-04-26 16:57 3.92799 -76.26785 15041 ft 357 kts 195°
2026-04-26 16:57 3.90392 -76.27399 15030 ft 357 kts 194°
2026-04-26 16:57 3.85581 -76.28606 15037 ft 357 kts 195°
2026-04-26 16:58 3.83181 -76.29238 15044 ft 356 kts 195°
2026-04-26 16:58 3.81594 -76.29654 15048 ft 356 kts 195°
2026-04-26 16:58 3.75965 -76.31040 15062 ft 357 kts 192°
2026-04-26 16:59 3.73525 -76.31492 15065 ft 357 kts 190°
2026-04-26 16:59 3.68643 -76.32220 14951 ft 360 kts 186°
2026-04-26 17:00 3.63667 -76.32558 14193 ft 355 kts 183°
2026-04-26 17:00 3.58767 -76.32758 13329 ft 350 kts 182°
2026-04-26 17:00 3.56344 -76.32847 12860 ft 347 kts 182°
2026-04-26 17:01 3.53940 -76.32933 12382 ft 345 kts 182°
2026-04-26 17:01 3.51550 -76.33020 11873 ft 342 kts 182°
2026-04-26 17:01 3.49178 -76.33107 11418 ft 340 kts 182°
2026-04-26 17:01 3.46819 -76.33179 10967 ft 338 kts 180°
2026-04-26 17:02 3.44476 -76.33159 10532 ft 336 kts 178°
2026-04-26 17:02 3.42148 -76.33085 10096 ft 334 kts 178°
2026-04-26 17:02 3.39881 -76.32990 9379 ft 307 kts 177°
2026-04-26 17:02 3.37842 -76.32896 7989 ft 286 kts 177°
2026-04-26 17:03 3.35875 -76.32800 7693 ft 277 kts 177°
2026-04-26 17:03 3.33969 -76.32701 7299 ft 272 kts 177°
2026-04-26 17:03 3.32124 -76.32896 6864 ft 267 kts 200°
2026-04-26 17:03 3.30571 -76.33829 6455 ft 264 kts 226°
2026-04-26 17:04 3.29581 -76.35342 6019 ft 260 kts 252°
2026-04-26 17:04 3.29401 -76.37097 5758 ft 250 kts 280°
2026-04-26 17:04 3.30041 -76.38590 5735 ft 224 kts 307°
2026-04-26 17:04 3.31149 -76.39649 5624 ft 218 kts 323°
2026-04-26 17:05 3.32426 -76.40467 5645 ft 220 kts 329°
2026-04-26 17:05 3.33764 -76.41222 5655 ft 220 kts 330°
2026-04-26 17:05 3.35152 -76.41698 5583 ft 206 kts 357°
2026-04-26 17:05 3.36521 -76.41431 5683 ft 201 kts 15°
2026-04-26 17:06 3.37876 -76.41072 5685 ft 201 kts 12°
2026-04-26 17:06 3.39239 -76.40806 5626 ft 201 kts
2026-04-26 17:06 3.40622 -76.40567 5440 ft 203 kts
2026-04-26 17:06 3.42012 -76.40327 5180 ft 199 kts
2026-04-26 17:07 3.43332 -76.40094 4951 ft 183 kts
2026-04-26 17:07 3.44534 -76.39883 4793 ft 170 kts
2026-04-26 17:07 3.45657 -76.39686 4570 ft 160 kts
2026-04-26 17:07 3.46747 -76.39495 4400 ft 161 kts
2026-04-26 17:08 3.47890 -76.39296 4219 ft 172 kts
2026-04-26 17:08 3.49073 -76.39088 3952 ft 170 kts 10°
2026-04-26 17:08 3.50200 -76.38891 3714 ft 160 kts 10°
2026-04-26 17:08 3.51285 -76.38694 3468 ft 159 kts 11°
2026-04-26 17:09 3.52386 -76.38494 3290 ft 161 kts
2026-04-26 17:09 3.53119 -76.38373 3192 ft 161 kts
2026-04-26 17:09 3.54388 -76.38157 3172 ft 114 kts 11°
2026-04-26 17:09 3.55034 -76.38045 3175 ft 71 kts 10°
2026-04-26 17:10 3.55392 -76.37984 3180 ft 33 kts
2026-04-26 17:10 3.55535 -76.37959 3177 ft 17 kts 10°
2026-04-26 17:10 3.55622 -76.37952 3178 ft 11 kts 341°
2026-04-26 17:10 3.55657 -76.38007 3178 ft 8 kts 279°
2026-04-26 17:11 3.55660 -76.38073 3178 ft 11 kts 253°
2026-04-26 17:11 3.55606 -76.38110 3176 ft 10 kts 191°
2026-04-26 17:11 3.55552 -76.38119 3175 ft 1 kts 189°